Regional Weather Roundup
Issued by NWS

Home | Current Version | Previous Version | Graphics & Text | Print | Product List | Glossary On
Versions: 1 2 3 4 5 6 7 8 9 10 11 12 13 14 15 16 17 18 19 20 21 22 23 24 25 26 27 28 29 30 31 32 33 34 35 36 37 38 39 40 41 42 43 44 45 46 47 48 49 50
000
ASUS44 KMEG 262210
RWRTN
TENNESSEE HOURLY STATE WEATHER ROUNDUP
NATIONAL WEATHER SERVICE MEMPHIS TN
500 PM CDT SUN APR 26 2015

TNZ002-004-019-021-049-052-054-088>092-262300-
WEST TENNESSEE

CITY           SKY/WX    TMP DP  RH WIND       PRES   REMARKS
MEMPHIS INTL   CLOUDY    62  52  69 N12       29.84F
NWS MEMPHIS      N/A     61 N/A N/A MISG        N/A
JACKSON        CLOUDY    57  49  74 N7        29.87R
DYERSBURG      CLOUDY    57  39  51 N9        29.88S
UNION CITY     CLOUDY    59  32  36 NE6       29.85F
PARIS          CLOUDY    55  46  71 CALM      29.87S
LEXINGTON      CLOUDY    54  46  76 N7        29.85R
SAVANNAH       CLOUDY    57  32  38 N6        29.86R
$$

TNZ008-025-027-028-033-062-065-066-262300-
NORTH MIDDLE TENNESSEE

CITY           SKY/WX    TMP DP  RH WIND       PRES   REMARKS
NASHVILLE      CLOUDY    57  47  69 N3        29.84S
CLARKSVILLE    CLOUDY    60  47  61 N9        29.85R
SMYRNA         CLOUDY    56  48  74 N7        29.85S
COOKEVILLE     CLOUDY    52  48  87 E3        29.81S
CROSSVILLE     CLOUDY    50  45  83 N10       29.81R
$$

TNZ061-075-076-078-094-096-097-262300-
SOUTH MIDDLE TENNESSEE

CITY           SKY/WX    TMP DP  RH WIND       PRES   REMARKS
FAYETTEVILLE   CLOUDY    55  50  82 N12       29.83R
TULLAHOMA      CLOUDY    54  46  76 N5        29.84R
WINCHESTER     CLOUDY    55  48  76 N8        29.83R
MCMINNVILLE    CLOUDY    52  48  87 N8        29.83R
COLUMBIA       CLOUDY    54  32  43 N3        29.84R
SHELBYVILLE    CLOUDY    55  50  82 N8        29.85R
$$

TNZ017-018-042-046-047-262300-
NORTHEAST TENNESSEE

CITY           SKY/WX    TMP DP  RH WIND       PRES   REMARKS
TRI CITIES     CLOUDY    58  45  62 N9        29.74R
ELIZABETHTON   CLOUDY    55  46  71 CALM      29.73R
$$

TNZ012-013-036-069-073-074-262300-
CENTRAL EAST TENNESSEE

CITY           SKY/WX    TMP DP  RH WIND       PRES   REMARKS
KNOXVILLE      CLOUDY    58  47  66 N12       29.76R
OAK RIDGE      MOSUNNY   59  47  64 VRB7      29.79R
GATLINBURG     CLOUDY    57  48  72 NW7       29.75R
MORRISTOWN     MOCLDY    55  48  76 NW9       29.76R
$$

TNZ083-085-099-262300-
SOUTHEAST TENNESSEE

CITY           SKY/WX    TMP DP  RH WIND       PRES   REMARKS
CHATTANOOGA    PTSUNNY   67  52  58 NW10      29.77R
$$

SKY/WX REPORTED AS FAIR MEANS FEW OR NO CLOUDS BELOW
12 THOUSAND FEET.




USA.gov is the U.S. government's official web portal to all federal, state and local government web resources and services.